TimeEDT,TemperatureF,Dew PointF,Humidity,Sea Level PressureIn,VisibilityMPH,Wind Direction,Wind SpeedMPH,Gust SpeedMPH,PrecipitationIn,Events,Conditions,WindDirDegrees,DateUTC
12:53 AM,26.1,18.0,71,29.93,10.0,West,12.7,20.7,N/A,,Overcast,260,2013-03-22 04:53:00
1:53 AM,25.0,19.0,78,29.92,10.0,West,16.1,23.0,0.00,,Mostly Cloudy,260,2013-03-22 05:53:00
2:35 AM,26.6,17.6,69,29.86,10.0,West,13.8,20.7,N/A,,Overcast,270,2013-03-22 06:35:00
2:53 AM,26.1,18.0,71,29.92,10.0,West,13.8,20.7,N/A,,Overcast,270,2013-03-22 06:53:00
3:53 AM,26.1,18.0,71,29.92,10.0,West,12.7,18.4,N/A,,Overcast,270,2013-03-22 07:53:00
4:53 AM,25.0,17.1,72,29.92,10.0,West,15.0,21.9,N/A,,Mostly Cloudy,270,2013-03-22 08:53:00
5:06 AM,24.8,17.6,74,29.86,10.0,West,10.4,19.6,N/A,,Scattered Clouds,270,2013-03-22 09:06:00
5:28 AM,24.8,17.6,74,29.86,10.0,West,10.4,-,N/A,,Mostly Cloudy,270,2013-03-22 09:28:00
5:53 AM,25.0,17.1,72,29.93,10.0,West,13.8,19.6,N/A,,Overcast,270,2013-03-22 09:53:00
6:22 AM,24.8,17.6,74,29.88,10.0,West,12.7,24.2,N/A,,Overcast,270,2013-03-22 10:22:00
6:53 AM,24.1,18.0,77,29.94,10.0,West,12.7,18.4,N/A,,Overcast,260,2013-03-22 10:53:00
7:53 AM,25.0,18.0,75,29.96,10.0,West,12.7,20.7,N/A,,Overcast,260,2013-03-22 11:53:00
8:53 AM,25.0,17.1,72,29.98,10.0,West,9.2,-,N/A,,Overcast,270,2013-03-22 12:53:00
9:53 AM,26.1,17.1,69,29.99,10.0,WNW,10.4,17.3,N/A,,Overcast,290,2013-03-22 13:53:00
10:53 AM,27.0,17.1,66,29.99,10.0,West,12.7,-,N/A,,Overcast,260,2013-03-22 14:53:00
11:53 AM,27.0,18.0,69,30.00,9.0,West,13.8,-,0.00,,Overcast,270,2013-03-22 15:53:00
12:38 PM,28.4,17.6,64,29.94,10.0,West,12.7,21.9,0.00,,Overcast,280,2013-03-22 16:38:00
12:53 PM,28.0,18.0,66,30.00,10.0,West,12.7,-,0.00,,Overcast,260,2013-03-22 16:53:00
1:15 PM,28.4,19.4,69,29.94,9.0,West,12.7,-,0.00,,Overcast,260,2013-03-22 17:15:00
1:53 PM,28.9,18.0,64,30.00,7.0,West,12.7,19.6,0.00,Snow,Light Snow,270,2013-03-22 17:53:00
2:53 PM,30.9,16.0,54,29.99,10.0,West,13.8,23.0,0.00,,Overcast,270,2013-03-22 18:53:00
3:53 PM,32.0,17.1,54,29.99,10.0,West,16.1,20.7,N/A,,Overcast,260,2013-03-22 19:53:00
4:53 PM,30.9,17.1,57,30.00,10.0,NW,8.1,17.3,N/A,,Overcast,310,2013-03-22 20:53:00
5:53 PM,32.0,17.1,54,30.00,10.0,WNW,8.1,19.6,N/A,,Mostly Cloudy,290,2013-03-22 21:53:00
6:53 PM,32.0,18.0,56,30.01,10.0,NW,5.8,-,N/A,,Clear,310,2013-03-22 22:53:00
7:53 PM,30.0,18.0,61,30.02,10.0,NNW,5.8,-,N/A,,Clear,340,2013-03-22 23:53:00
8:53 PM,28.9,18.0,64,30.03,10.0,North,3.5,-,N/A,,Clear,360,2013-03-23 00:53:00
9:53 PM,28.0,18.0,66,30.04,10.0,Calm,Calm,-,N/A,,Clear,0,2013-03-23 01:53:00
10:53 PM,28.0,18.0,66,30.04,10.0,Calm,Calm,-,N/A,,Clear,0,2013-03-23 02:53:00
11:53 PM,28.0,18.0,66,30.05,10.0,Calm,Calm,-,N/A,,Clear,0,2013-03-23 03:53:00